QPF
0.18 0.16 0.16 0.16 0.13 0.12 0.12 0.12 0.14 0.19 0.22 0.20 0.19 0.18 0.15 0.09 0.05 0.03 0.03 0.02 0.04 0.06 0.08 0.13 0.17 0.16 0.16 0.13 0.10 0.07 0.05 0.04 0.02 0.01 0.00 0.00 0.00 0.00 0.00 0.00 0.00 0.00 0.00
0.14 0.14 0.14 0.12 0.10 0.10 0.09 0.09 0.11 0.13 0.15 0.17 0.15 0.15 0.14 0.11 0.08 0.05 0.04 0.04 0.05 0.07 0.08 0.12 0.17 0.18 0.19 0.17 0.13 0.10 0.08 0.06 0.05 0.03 0.01 0.01 0.00 0.00 0.00 0.00 0.00 0.00 0.00
0.11 0.12 0.12 0.10 0.08 0.07 0.07 0.07 0.09 0.11 0.13 0.10 0.08 0.12 0.14 0.15 0.12 0.08 0.07 0.07 0.05 0.07 0.10 0.12 0.16 0.19 0.21 0.21 0.18 0.14 0.10 0.08 0.08 0.06 0.04 0.03 0.01 0.01 0.00 0.00 0.00 0.00 0.00
0.08 0.08 0.09 0.07 0.05 0.05 0.05 0.05 0.04 0.05 0.06 0.07 0.06 0.09 0.12 0.13 0.12 0.10 0.10 0.09 0.07 0.06 0.08 0.12 0.16 0.19 0.24 0.26 0.23 0.20 0.16 0.10 0.08 0.07 0.06 0.04 0.03 0.03 0.01 0.01 0.00 0.00 0.00
0.02 0.02 0.03 0.02 0.02 0.02 0.01 0.02 0.03 0.04 0.04 0.05 0.06 0.09 0.11 0.11 0.09 0.11 0.10 0.09 0.09 0.09 0.09 0.11 0.16 0.17 0.23 0.30 0.30 0.26 0.21 0.16 0.11 0.08 0.08 0.06 0.06 0.04 0.03 0.02 0.01 0.01 0.00
0.01 0.01 0.01 0.00 0.00 0.00 0.00 0.00 0.01 0.01 0.01 0.02 0.03 0.06 0.09 0.10 0.09 0.10 0.10 0.10 0.09 0.09 0.10 0.12 0.15 0.15 0.20 0.27 0.32 0.32 0.29 0.23 0.16 0.12 0.11 0.10 0.10 0.08 0.05 0.03 0.03 0.03 0.02
0.00 0.00 0.00 0.00 0.00 0.00 0.00 0.00 0.00 0.00 0.01 0.01 0.02 0.03 0.06 0.08 0.09 0.09 0.11 0.11 0.09 0.08 0.07 0.09 0.12 0.14 0.14 0.19 0.23 0.26 0.30 0.29 0.23 0.16 0.13 0.13 0.13 0.12 0.08 0.05 0.04 0.05 0.04
0.00 0.00 0.00 0.00 0.00 0.00 0.00 0.00 0.00 0.00 0.00 0.01 0.02 0.03 0.03 0.05 0.07 0.07 0.08 0.09 0.09 0.09 0.10 0.08 0.08 0.10 0.13 0.13 0.11 0.15 0.22 0.26 0.24 0.19 0.16 0.13 0.11 0.10 0.08 0.06 0.04 0.05 0.05
0.00 0.00 0.00 0.00 0.00 0.00 0.00 0.00 0.00 0.00 0.00 0.01 0.02 0.04 0.05 0.04 0.03 0.04 0.04 0.05 0.07 0.09 0.09 0.10 0.09 0.08 0.09 0.10 0.10 0.12 0.19 0.20 0.22 0.23 0.19 0.14 0.10 0.06 0.05 0.05 0.05 0.05 0.04
0.00 0.00 0.00 0.00 0.00 0.00 0.00 0.00 0.00 0.00 0.00 0.01 0.03 0.04 0.06 0.05 0.06 0.06 0.04 0.05 0.07 0.10 0.10 0.08 0.08 0.08 0.08 0.08 0.06 0.07 0.10 0.15 0.17 0.22 0.24 0.20 0.12 0.06 0.04 0.05 0.08 0.08 0.05
0.00 0.00 0.00 0.00 0.00 0.00 0.00 0.00 0.00 0.00 0.00 0.01 0.02 0.02 0.03 0.04 0.05 0.06 0.05 0.05 0.05 0.05 0.08 0.09 0.08 0.06 0.07 0.08 0.06 0.05 0.06 0.09 0.11 0.14 0.19 0.20 0.15 0.09 0.06 0.06 0.11 0.13 0.10
0.00 0.00 0.00 0.00 0.00 0.00 0.00 0.00 0.00 0.00 0.00 0.00 0.01 0.01 0.02 0.03 0.05 0.06 0.05 0.04 0.04 0.03 0.05 0.07 0.07 0.05 0.05 0.05 0.05 0.04 0.05 0.05 0.06 0.08 0.09 0.11 0.13 0.11 0.08 0.07 0.10 0.13 0.13
0.00 0.00 0.00 0.00 0.00 0.00 0.00 0.00 0.00 0.00 0.00 0.00 0.00 0.01 0.01 0.02 0.04 0.05 0.06 0.05 0.05 0.04 0.05 0.05 0.05 0.05 0.04 0.04 0.04 0.05 0.05 0.06 0.05 0.05 0.06 0.06 0.07 0.08 0.08 0.06 0.08 0.09 0.11
0.00 0.00 0.00 0.00 0.00 0.00 0.00 0.00 0.00 0.00 0.00 0.00 0.00 0.00 0.00 0.01 0.01 0.03 0.05 0.05 0.05 0.05 0.06 0.06 0.06 0.05 0.06 0.06 0.07 0.08 0.06 0.06 0.06 0.05 0.05 0.04 0.04 0.04 0.04 0.03 0.03 0.04 0.05
0.00 0.00 0.00 0.00 0.00 0.00 0.00 0.00 0.00 0.00 0.00 0.00 0.00 0.00 0.00 0.00 0.00 0.01 0.03 0.06 0.07 0.06 0.06 0.06 0.08 0.08 0.07 0.07 0.09 0.09 0.06 0.05 0.06 0.06 0.05 0.05 0.04 0.03 0.03 0.02 0.02 0.01 0.01
0.00 0.00 0.00 0.00 0.00 0.00 0.00 0.00 0.00 0.00 0.00 0.00 0.00 0.00 0.00 0.00 0.00 0.00 0.02 0.04 0.06 0.07 0.07 0.06 0.07 0.10 0.10 0.09 0.09 0.08 0.08 0.08 0.08 0.07 0.06 0.05 0.04 0.04 0.03 0.03 0.03 0.02 0.02
0.00 0.00 0.00 0.00 0.00 0.00 0.00 0.00 0.00 0.00 0.00 0.00 0.00 0.00 0.00 0.00 0.00 0.00 0.01 0.02 0.05 0.07 0.07 0.06 0.07 0.10 0.11 0.11 0.09 0.09 0.08 0.08 0.07 0.07 0.05 0.04 0.04 0.03 0.03 0.03 0.03 0.03 0.02
0.00 0.00 0.00 0.00 0.00 0.00 0.00 0.00 0.00 0.00 0.00 0.00 0.00 0.00 0.00 0.00 0.00 0.00 0.01 0.01 0.03 0.06 0.07 0.08 0.09 0.12 0.14 0.14 0.12 0.11 0.10 0.08 0.06 0.06 0.05 0.04 0.03 0.03 0.02 0.02 0.02 0.02 0.02
0.00 0.00 0.00 0.00 0.00 0.00 0.00 0.00 0.00 0.00 0.00 0.00 0.00 0.00 0.00 0.00 0.00 0.00 0.00 0.02 0.03 0.04 0.07 0.09 0.13 0.16 0.16 0.16 0.14 0.12 0.10 0.08 0.06 0.05 0.05 0.03 0.03 0.02 0.01 0.01 0.01 0.01 0.01
0.00 0.00 0.00 0.00 0.00 0.00 0.00 0.00 0.00 0.00 0.00 0.00 0.00 0.00 0.00 0.00 0.00 0.00 0.00 0.01 0.02 0.03 0.06 0.09 0.13 0.19 0.20 0.19 0.17 0.12 0.10 0.08 0.05 0.03 0.03 0.03 0.03 0.02 0.01 0.01 0.01 0.01 0.01
0.00 0.00 0.00 0.00 0.00 0.00 0.00 0.00 0.00 0.00 0.00 0.00 0.00 0.00 0.00 0.00 0.00 0.00 0.00 0.01 0.02 0.03 0.04 0.07 0.11 0.19 0.24 0.24 0.19 0.13 0.11 0.08 0.06 0.03 0.02 0.02 0.01 0.01 0.01 0.01 0.01 0.01 0.01
0.00 0.00 0.00 0.00 0.00 0.00 0.00 0.00 0.00 0.00 0.00 0.00 0.00 0.00 0.00 0.00 0.00 0.00 0.00 0.01 0.01 0.03 0.03 0.06 0.09 0.14 0.22 0.27 0.27 0.22 0.16 0.10 0.06 0.04 0.02 0.03 0.02 0.01 0.01 0.01 0.01 0.01 0.01
0.00 0.00 0.00 0.00 0.00 0.00 0.00 0.00 0.00 0.00 0.00 0.00 0.00 0.00 0.00 0.00 0.00 0.00 0.00 0.01 0.01 0.02 0.03 0.04 0.08 0.10 0.16 0.26 0.33 0.31 0.23 0.15 0.08 0.04 0.03 0.03 0.03 0.02 0.02 0.01 0.02 0.01 0.01
0.00 0.00 0.00 0.00 0.00 0.00 0.00 0.00 0.00 0.00 0.00 0.00 0.00 0.00 0.00 0.00 0.00 0.00 0.00 0.01 0.01 0.01 0.03 0.04 0.06 0.11 0.15 0.22 0.31 0.36 0.36 0.26 0.17 0.10 0.05 0.02 0.03 0.02 0.02 0.02 0.02 0.02 0.01
0.00 0.00 0.00 0.00 0.00 0.00 0.00 0.00 0.00 0.00 0.00 0.00 0.00 0.00 0.00 0.01 0.00 0.00 0.01 0.01 0.01 0.01 0.02 0.04 0.06 0.12 0.18 0.24 0.32 0.39 0.41 0.36 0.25 0.16 0.09 0.04 0.02 0.02 0.02 0.02 0.02 0.02 0.02
0.00 0.00 0.00 0.00 0.00 0.00 0.00 0.00 0.00 0.00 0.00 0.00 0.00 0.01 0.01 0.01 0.01 0.01 0.01 0.01 0.01 0.01 0.02 0.03 0.05 0.10 0.16 0.23 0.29 0.33 0.33 0.31 0.24 0.16 0.10 0.05 0.02 0.01 0.01 0.01 0.01 0.01 0.01
MSLP
1015.70 1015.77 1015.76 1015.71 1015.63 1015.57 1015.54 1015.54 1015.55 1015.57 1015.56 1015.51 1015.44 1015.34 1015.25 1015.19 1015.19 1015.25 1015.38 1015.56 1015.78 1016.02 1016.26 1016.50 1016.75 1017.02 1017.33 1017.69 1018.10 1018.54 1019.00 1019.45 1019.89 1020.29 1020.65 1021.00 1021.32 1021.66 1022.00 1022.37 1022.74 1023.12 1023.49
1015.77 1015.81 1015.79 1015.75 1015.70 1015.67 1015.65 1015.66 1015.66 1015.64 1015.57 1015.45 1015.28 1015.09 1014.90 1014.74 1014.65 1014.63 1014.70 1014.84 1015.03 1015.26 1015.51 1015.77 1016.05 1016.35 1016.68 1017.06 1017.48 1017.93 1018.41 1018.89 1019.35 1019.80 1020.22 1020.62 1021.01 1021.39 1021.78 1022.18 1022.58 1022.97 1023.35
1015.81 1015.82 1015.81 1015.78 1015.77 1015.77 1015.78 1015.79 1015.78 1015.72 1015.59 1015.39 1015.13 1014.84 1014.55 1014.29 1014.11 1014.00 1014.00 1014.07 1014.22 1014.43 1014.67 1014.94 1015.24 1015.56 1015.92 1016.32 1016.76 1017.23 1017.73 1018.24 1018.74 1019.23 1019.70 1020.16 1020.60 1021.03 1021.46 1021.89 1022.32 1022.74 1023.14
1015.81 1015.80 1015.79 1015.79 1015.81 1015.85 1015.89 1015.90 1015.87 1015.77 1015.58 1015.31 1014.98 1014.60 1014.23 1013.88 1013.61 1013.42 1013.33 1013.33 1013.42 1013.58 1013.79 1014.05 1014.35 1014.69 1015.08 1015.50 1015.97 1016.47 1017.00 1017.54 1018.07 1018.60 1019.11 1019.61 1020.09 1020.57 1021.03 1021.50 1021.96 1022.40 1022.83
1015.77 1015.73 1015.72 1015.75 1015.81 1015.88 1015.94 1015.96 1015.91 1015.77 1015.54 1015.22 1014.82 1014.39 1013.96 1013.55 1013.20 1012.94 1012.77 1012.69 1012.70 1012.78 1012.94 1013.16 1013.44 1013.79 1014.18 1014.64 1015.14 1015.67 1016.23 1016.80 1017.37 1017.93 1018.47 1019.00 1019.51 1020.01 1020.51 1021.00 1021.48 1021.95 1022.40
1015.69 1015.62 1015.60 1015.65 1015.74 1015.83 1015.91 1015.93 1015.87 1015.71 1015.45 1015.10 1014.69 1014.23 1013.78 1013.34 1012.95 1012.63 1012.37 1012.20 1012.11 1012.10 1012.17 1012.32 1012.56 1012.89 1013.29 1013.76 1014.29 1014.86 1015.46 1016.06 1016.66 1017.24 1017.80 1018.35 1018.87 1019.39 1019.90 1020.40 1020.90 1021.39 1021.87
1015.56 1015.46 1015.44 1015.50 1015.60 1015.71 1015.80 1015.82 1015.75 1015.58 1015.32 1014.98 1014.58 1014.15 1013.71 1013.28 1012.87 1012.50 1012.18 1011.91 1011.70 1011.57 1011.53 1011.59 1011.76 1012.04 1012.43 1012.91 1013.46 1014.06 1014.69 1015.32 1015.94 1016.54 1017.12 1017.67 1018.20 1018.72 1019.23 1019.74 1020.24 1020.74 1021.24
1015.41 1015.28 1015.25 1015.31 1015.42 1015.53 1015.61 1015.63 1015.56 1015.40 1015.17 1014.87 1014.52 1014.15 1013.77 1013.37 1012.97 1012.57 1012.18 1011.81 1011.48 1011.22 1011.04 1010.99 1011.07 1011.28 1011.64 1012.10 1012.66 1013.28 1013.93 1014.59 1015.23 1015.84 1016.42 1016.97 1017.50 1018.02 1018.53 1019.03 1019.54 1020.05 1020.56
1015.26 1015.10 1015.06 1015.11 1015.20 1015.30 1015.37 1015.39 1015.32 1015.19 1015.00 1014.77 1014.51 1014.23 1013.92 1013.59 1013.21 1012.80 1012.35 1011.89 1011.43 1011.03 1010.71 1010.53 1010.49 1010.63 1010.93 1011.36 1011.91 1012.53 1013.18 1013.84 1014.49 1015.11 1015.70 1016.25 1016.79 1017.30 1017.81 1018.32 1018.83 1019.35 1019.86
1015.13 1014.96 1014.90 1014.92 1014.99 1015.07 1015.12 1015.12 1015.06 1014.96 1014.83 1014.68 1014.51 1014.33 1014.12 1013.86 1013.53 1013.11 1012.62 1012.07 1011.50 1010.97 1010.52 1010.20 1010.06 1010.09 1010.31 1010.69 1011.20 1011.79 1012.43 1013.09 1013.73 1014.34 1014.93 1015.49 1016.04 1016.56 1017.09 1017.61 1018.13 1018.65 1019.17
1015.03 1014.85 1014.77 1014.77 1014.80 1014.84 1014.86 1014.84 1014.80 1014.72 1014.65 1014.57 1014.50 1014.42 1014.30 1014.11 1013.82 1013.41 1012.89 1012.28 1011.63 1011.00 1010.43 1010.00 1009.74 1009.68 1009.81 1010.11 1010.55 1011.09 1011.69 1012.30 1012.92 1013.53 1014.11 1014.68 1015.24 1015.80 1016.34 1016.89 1017.43 1017.96 1018.49
1014.98 1014.80 1014.69 1014.65 1014.64 1014.64 1014.62 1014.57 1014.52 1014.47 1014.43 1014.43 1014.43 1014.43 1014.39 1014.26 1014.02 1013.63 1013.10 1012.46 1011.76 1011.06 1010.41 1009.89 1009.55 1009.39 1009.43 1009.64 1009.99 1010.44 1010.96 1011.51 1012.09 1012.66 1013.24 1013.82 1014.41 1014.99 1015.58 1016.16 1016.73 1017.28 1017.83
1014.95 1014.76 1014.64 1014.56 1014.50 1014.44 1014.37 1014.30 1014.23 1014.18 1014.17 1014.20 1014.26 1014.32 1014.33 1014.26 1014.05 1013.69 1013.18 1012.55 1011.84 1011.12 1010.44 1009.87 1009.46 1009.23 1009.18 1009.28 1009.52 1009.87 1010.28 1010.75 1011.26 1011.79 1012.35 1012.93 1013.54 1014.16 1014.79 1015.41 1016.02 1016.60 1017.16
1014.89 1014.71 1014.57 1014.45 1014.34 1014.23 1014.11 1014.00 1013.90 1013.85 1013.84 1013.89 1013.97 1014.06 1014.10 1014.06 1013.89 1013.57 1013.11 1012.51 1011.84 1011.15 1010.49 1009.92 1009.48 1009.19 1009.05 1009.06 1009.18 1009.40 1009.70 1010.06 1010.48 1010.95 1011.48 1012.06 1012.68 1013.33 1014.00 1014.65 1015.29 1015.89 1016.46
1014.78 1014.59 1014.43 1014.28 1014.12 1013.97 1013.81 1013.66 1013.53 1013.46 1013.44 1013.48 1013.56 1013.64 1013.70 1013.68 1013.54 1013.27 1012.86 1012.35 1011.75 1011.13 1010.53 1010.00 1009.57 1009.25 1009.06 1008.97 1008.98 1009.07 1009.24 1009.49 1009.82 1010.22 1010.70 1011.26 1011.89 1012.55 1013.23 1013.91 1014.57 1015.18 1015.76
1014.55 1014.37 1014.19 1014.01 1013.83 1013.64 1013.45 1013.27 1013.11 1013.01 1012.97 1012.98 1013.03 1013.10 1013.15 1013.13 1013.03 1012.81 1012.48 1012.06 1011.57 1011.05 1010.55 1010.09 1009.70 1009.38 1009.15 1008.99 1008.91 1008.89 1008.95 1009.09 1009.32 1009.65 1010.09 1010.62 1011.22 1011.88 1012.56 1013.24 1013.88 1014.49 1015.05
1014.19 1014.01 1013.82 1013.63 1013.43 1013.22 1013.01 1012.82 1012.65 1012.52 1012.45 1012.42 1012.44 1012.48 1012.50 1012.48 1012.40 1012.23 1011.98 1011.66 1011.29 1010.90 1010.51 1010.14 1009.81 1009.52 1009.28 1009.09 1008.94 1008.84 1008.82 1008.88 1009.04 1009.31 1009.70 1010.19 1010.76 1011.39 1012.04 1012.68 1013.29 1013.86 1014.40
1013.70 1013.52 1013.33 1013.13 1012.93 1012.72 1012.52 1012.32 1012.14 1011.99 1011.90 1011.84 1011.82 1011.82 1011.82 1011.79 1011.72 1011.60 1011.42 1011.19 1010.94 1010.66 1010.39 1010.12 1009.86 1009.62 1009.40 1009.20 1009.02 1008.89 1008.82 1008.84 1008.96 1009.20 1009.55 1010.01 1010.54 1011.12 1011.72 1012.30 1012.85 1013.36 1013.85
1013.12 1012.93 1012.74 1012.55 1012.36 1012.16 1011.97 1011.78 1011.60 1011.45 1011.33 1011.25 1011.20 1011.16 1011.13 1011.09 1011.02 1010.93 1010.81 1010.67 1010.50 1010.33 1010.15 1009.98 1009.80 1009.61 1009.43 1009.25 1009.10 1008.97 1008.91 1008.93 1009.06 1009.29 1009.63 1010.07 1010.56 1011.09 1011.62 1012.13 1012.60 1013.04 1013.46
1012.49 1012.29 1012.10 1011.92 1011.74 1011.56 1011.38 1011.21 1011.04 1010.89 1010.76 1010.66 1010.58 1010.52 1010.46 1010.40 1010.34 1010.27 1010.19 1010.10 1010.00 1009.90 1009.80 1009.70 1009.58 1009.46 1009.33 1009.21 1009.10 1009.03 1009.02 1009.09 1009.26 1009.53 1009.89 1010.32 1010.80 1011.28 1011.75 1012.18 1012.57 1012.93 1013.28
1011.87 1011.66 1011.46 1011.28 1011.10 1010.93 1010.77 1010.60 1010.45 1010.30 1010.18 1010.06 1009.97 1009.88 1009.81 1009.74 1009.68 1009.62 1009.55 1009.49 1009.44 1009.38 1009.33 1009.27 1009.21 1009.15 1009.08 1009.03 1009.00 1009.01 1009.09 1009.24 1009.49 1009.83 1010.24 1010.69 1011.17 1011.63 1012.06 1012.43 1012.76 1013.05 1013.34
1011.31 1011.06 1010.84 1010.64 1010.46 1010.28 1010.12 1009.96 1009.81 1009.67 1009.55 1009.44 1009.33 1009.25 1009.17 1009.09 1009.03 1008.96 1008.91 1008.86 1008.82 1008.78 1008.75 1008.73 1008.70 1008.69 1008.68 1008.70 1008.76 1008.87 1009.05 1009.32 1009.67 1010.10 1010.58 1011.09 1011.59 1012.06 1012.47 1012.82 1013.10 1013.36 1013.61
1010.79 1010.51 1010.25 1010.02 1009.80 1009.61 1009.43 1009.27 1009.12 1008.98 1008.86 1008.75 1008.66 1008.57 1008.50 1008.43 1008.36 1008.30 1008.25 1008.20 1008.16 1008.12 1008.10 1008.09 1008.09 1008.10 1008.15 1008.24 1008.38 1008.60 1008.89 1009.27 1009.73 1010.26 1010.83 1011.40 1011.96 1012.46 1012.90 1013.26 1013.55 1013.80 1014.05
1010.32 1009.98 1009.67 1009.39 1009.13 1008.90 1008.69 1008.51 1008.35 1008.21 1008.09 1007.99 1007.91 1007.84 1007.78 1007.72 1007.67 1007.62 1007.57 1007.52 1007.47 1007.43 1007.41 1007.39 1007.41 1007.45 1007.54 1007.69 1007.91 1008.20 1008.59 1009.07 1009.63 1010.25 1010.90 1011.56 1012.19 1012.75 1013.25 1013.66 1014.01 1014.30 1014.59
1009.85 1009.45 1009.08 1008.74 1008.43 1008.15 1007.90 1007.69 1007.51 1007.37 1007.26 1007.17 1007.10 1007.05 1007.01 1006.98 1006.94 1006.90 1006.86 1006.81 1006.77 1006.73 1006.70 1006.70 1006.72 1006.79 1006.91 1007.09 1007.36 1007.72 1008.17 1008.72 1009.36 1010.05 1010.78 1011.51 1012.21 1012.86 1013.44 1013.95 1014.38 1014.76 1015.12
1009.33 1008.88 1008.45 1008.05 1007.69 1007.37 1007.09 1006.85 1006.65 1006.50 1006.39 1006.31 1006.26 1006.23 1006.21 1006.20 1006.18 1006.16 1006.13 1006.10 1006.07 1006.04 1006.03 1006.03 1006.07 1006.15 1006.29 1006.50 1006.80 1007.19 1007.68 1008.27 1008.94 1009.68 1010.46 1011.25 1012.03 1012.77 1013.45 1014.06 1014.60 1015.10 1015.56
Thickness
5727 5726 5724 5723 5723 5722 5722 5722 5722 5721 5721 5721 5720 5720 5720 5720 5720 5720 5721 5721 5722 5723 5724 5725 5726 5727 5726 5726 5725 5725 5724 5723 5722 5722 5721 5720 5719 5718 5717 5716 5715 5714 5713
5720 5719 5718 5716 5716 5716 5715 5716 5716 5715 5716 5716 5716 5717 5718 5718 5718 5718 5718 5718 5720 5721 5723 5724 5725 5726 5726 5726 5725 5724 5724 5723 5722 5722 5721 5720 5719 5718 5717 5716 5715 5714 5713
5713 5711 5710 5710 5710 5709 5709 5709 5709 5710 5710 5711 5712 5713 5714 5714 5715 5716 5717 5717 5717 5719 5721 5723 5724 5725 5725 5725 5725 5724 5724 5723 5722 5722 5721 5719 5718 5717 5716 5715 5714 5714 5713
5706 5704 5703 5702 5702 5701 5701 5701 5702 5702 5703 5703 5705 5707 5709 5710 5712 5714 5715 5715 5716 5717 5719 5721 5722 5724 5724 5724 5724 5724 5723 5723 5722 5721 5720 5719 5718 5717 5716 5715 5714 5713 5712
5698 5696 5695 5694 5694 5693 5693 5693 5693 5693 5694 5696 5699 5702 5704 5706 5709 5711 5713 5714 5715 5716 5718 5719 5720 5722 5723 5723 5723 5723 5723 5722 5722 5721 5721 5719 5718 5717 5716 5715 5714 5713 5712
5690 5689 5687 5686 5685 5684 5684 5683 5684 5685 5686 5688 5692 5696 5700 5703 5706 5708 5710 5712 5713 5715 5716 5717 5718 5720 5722 5723 5723 5722 5722 5722 5722 5721 5721 5720 5719 5717 5716 5715 5714 5713 5712
5682 5681 5679 5678 5676 5675 5674 5674 5675 5676 5677 5680 5682 5687 5694 5699 5702 5705 5706 5708 5710 5712 5713 5714 5715 5717 5719 5721 5722 5721 5721 5722 5721 5721 5721 5720 5719 5718 5717 5715 5714 5713 5713
5674 5673 5671 5670 5668 5667 5666 5666 5666 5666 5667 5670 5671 5674 5679 5687 5694 5700 5701 5703 5706 5708 5710 5711 5712 5714 5716 5718 5720 5721 5721 5721 5722 5721 5721 5721 5719 5718 5717 5716 5715 5714 5713
5666 5665 5664 5662 5661 5659 5658 5658 5657 5657 5656 5659 5661 5662 5665 5670 5678 5688 5693 5697 5699 5702 5705 5708 5710 5711 5713 5715 5717 5720 5721 5721 5722 5721 5721 5721 5720 5719 5717 5716 5715 5714 5713
5659 5657 5656 5655 5653 5652 5651 5650 5650 5649 5648 5649 5651 5654 5657 5660 5663 5672 5681 5687 5692 5695 5699 5703 5706 5709 5711 5713 5715 5718 5720 5721 5722 5722 5722 5721 5720 5719 5719 5717 5716 5715 5714
5651 5649 5648 5647 5645 5644 5643 5642 5642 5641 5640 5641 5642 5644 5648 5652 5655 5658 5666 5674 5680 5687 5693 5697 5701 5705 5708 5710 5713 5716 5718 5720 5722 5722 5722 5722 5721 5720 5719 5718 5717 5716 5715
5643 5642 5640 5639 5637 5636 5635 5634 5634 5633 5633 5633 5634 5635 5637 5641 5645 5648 5654 5661 5668 5677 5685 5692 5696 5701 5705 5708 5711 5715 5717 5719 5721 5722 5722 5722 5722 5721 5720 5719 5718 5716 5716
5636 5635 5633 5631 5629 5628 5627 5626 5625 5625 5625 5626 5627 5628 5630 5633 5636 5639 5643 5650 5657 5667 5677 5685 5692 5697 5701 5705 5709 5712 5715 5717 5719 5721 5722 5722 5722 5722 5721 5720 5719 5718 5717
5631 5628 5626 5623 5622 5620 5619 5618 5616 5616 5617 5618 5619 5620 5622 5625 5628 5631 5635 5640 5646 5656 5666 5675 5684 5689 5694 5699 5704 5707 5711 5714 5717 5719 5721 5722 5722 5722 5721 5720 5720 5718 5718
5625 5623 5619 5617 5615 5612 5611 5609 5608 5608 5608 5609 5610 5612 5614 5617 5619 5623 5627 5631 5635 5642 5653 5664 5671 5679 5685 5690 5697 5701 5706 5711 5714 5717 5718 5720 5721 5721 5721 5720 5720 5719 5718
5620 5616 5613 5610 5608 5606 5604 5602 5600 5600 5600 5601 5602 5603 5605 5608 5611 5614 5618 5623 5628 5633 5641 5653 5660 5667 5674 5682 5689 5695 5700 5706 5710 5713 5715 5717 5718 5719 5719 5719 5719 5718 5717
5614 5610 5607 5604 5601 5599 5596 5594 5593 5592 5592 5593 5593 5595 5598 5600 5603 5606 5610 5615 5620 5626 5633 5643 5650 5658 5665 5672 5680 5686 5692 5698 5703 5707 5710 5712 5714 5716 5717 5717 5717 5717 5717
5608 5604 5601 5597 5595 5592 5590 5587 5586 5586 5585 5585 5586 5587 5589 5592 5595 5598 5601 5606 5612 5618 5625 5633 5640 5648 5656 5663 5670 5676 5683 5688 5694 5699 5703 5706 5709 5711 5713 5715 5715 5715 5715
5603 5599 5595 5591 5589 5586 5584 5581 5580 5579 5578 5578 5578 5579 5581 5583 5586 5589 5593 5598 5603 5610 5617 5624 5631 5638 5646 5654 5660 5666 5672 5678 5684 5689 5694 5698 5702 5705 5708 5710 5711 5712 5713
5597 5593 5589 5585 5582 5580 5577 5575 5573 5572 5571 5571 5571 5571 5572 5574 5577 5580 5584 5589 5594 5600 5607 5614 5622 5629 5637 5644 5651 5656 5661 5667 5672 5678 5683 5688 5693 5697 5700 5704 5706 5708 5709
5592 5587 5583 5580 5576 5573 5572 5570 5567 5566 5564 5564 5563 5563 5564 5566 5568 5571 5575 5580 5584 5590 5597 5605 5612 5619 5628 5635 5642 5649 5653 5657 5661 5667 5672 5677 5683 5687 5691 5696 5699 5702 5704
5586 5581 5577 5574 5571 5569 5567 5563 5560 5558 5557 5556 5555 5555 5555 5557 5561 5564 5568 5572 5576 5581 5588 5596 5604 5611 5619 5627 5635 5641 5646 5648 5652 5658 5663 5665 5672 5676 5682 5687 5692 5695 5698
5580 5575 5572 5568 5565 5563 5559 5556 5553 5550 5549 5548 5547 5547 5548 5551 5552 5554 5558 5563 5568 5574 5581 5588 5596 5604 5612 5620 5626 5633 5639 5643 5648 5652 5654 5654 5659 5664 5670 5676 5682 5687 5691
5574 5570 5567 5563 5559 5557 5554 5550 5546 5543 5541 5540 5538 5538 5538 5540 5542 5544 5547 5552 5558 5564 5572 5579 5588 5596 5603 5611 5618 5625 5631 5634 5637 5641 5647 5646 5648 5652 5658 5664 5671 5677 5681
5569 5565 5561 5557 5554 5551 5547 5543 5539 5536 5533 5531 5530 5529 5529 5531 5533 5533 5537 5542 5547 5554 5560 5569 5577 5585 5594 5602 5609 5615 5621 5626 5629 5631 5637 5641 5639 5641 5645 5651 5658 5665 5671
5564 5560 5557 5553 5548 5545 5542 5537 5532 5528 5526 5524 5522 5521 5521 5522 5523 5524 5527 5532 5537 5544 5549 5558 5566 5574 5583 5592 5600 5608 5615 5621 5625 5626 5629 5634 5634 5637 5637 5639 5646 5653 5659